Date String (YYYY-MM-DD hh:mm:ss) UTC,Instrument flags,absolute air pressure of the measurement (hPa),sample flow rate (lpm),inlet stack bypass flow (lpm),air temperature of the measurement (°C),ambient temperature measured by the external sensor (°C),aerosol sample conditioner tube jacket temperature (°C),OPC LED temperature (°C),internal box temperature (°C),relative humidity of the measurement (%),span deviation,mass concentration of particles derived from Lorenz-Mie calculation of OPC scattering (μg/m³),mass concentration of particles derived from Lorenz-Mie calculation of OPC scattering (μg/m³),mass concentration of particles derived from Lorenz-Mie calculation of OPC scattering (μg/m³)
DateTimeUTC,F1_M11,P_M11,Q1_M11,Q2_M11,T1_M11,T2_M11,T3_M11,T4_M11,T5_M11,U1_M11,ZSPAN_M11,X0_M11,X2_M11,X1_M11
2023-06-12 10:00:00,SystemResetWarning,0830.4,5.00,000.00,028.9,027.3,000.0,037.7,030.2,32.0,0002.8,0009.93,0006.01,0005.47
2023-06-12 10:01:00,SystemResetWarning,0830.5,4.99,000.00,028.9,027.2,000.0,037.6,030.1,32.1,0002.7,0010.10,0006.08,0005.52
2023-06-12 10:02:00,SystemResetWarning,0830.5,5.00,000.00,028.8,027.2,000.0,037.6,030.2,32.1,0002.8,0011.11,0006.25,0005.58
2023-06-12 10:03:00,SystemResetWarning,0830.4,5.01,000.00,028.9,027.2,000.0,037.6,030.2,32.1,0002.7,0011.76,0006.47,0005.68
2023-06-12 10:04:00,SystemResetWarning,0830.4,5.01,000.00,028.8,027.2,000.0,037.6,030.1,32.2,0002.4,0012.53,0006.73,0005.76
2023-06-12 10:05:00,SystemResetWarning,0830.4,4.99,000.00,028.8,027.2,000.0,037.6,030.1,32.2,0002.2,0013.21,0006.99,0005.85
2023-06-12 10:06:00,SystemResetWarning,0830.3,4.98,000.00,028.8,027.2,000.0,037.6,030.1,32.3,0002.2,0013.69,0007.17,0005.93
2023-06-12 10:07:00,SystemResetWarning,0830.4,5.00,000.00,028.8,027.2,000.0,037.6,030.1,32.3,0002.1,0014.05,0007.31,0005.98
2023-06-12 10:08:00,SystemResetWarning,0830.4,5.00,000.00,028.8,027.2,000.0,037.5,030.1,32.2,0002.1,0014.42,0007.46,0006.02
2023-06-12 10:09:00,SystemResetWarning,0830.4,5.01,000.00,028.8,027.2,000.0,037.5,030.1,32.2,0001.9,0014.90,0007.63,0006.06
2023-06-12 10:10:00,SystemResetWarning,0830.3,5.00,000.00,028.8,027.2,000.0,037.5,030.1,32.2,0001.6,0015.21,0007.73,0006.08
2023-06-12 10:11:00,SystemResetWarning,0830.3,4.99,000.00,028.8,027.2,000.0,037.5,030.1,32.2,0001.3,0015.49,0007.83,0006.11
2023-06-12 10:12:00,SystemResetWarning,0830.3,5.00,000.00,028.8,027.2,000.0,037.5,030.1,32.1,0001.0,0015.86,0007.94,0006.12
2023-06-12 10:13:00,SystemResetWarning,0830.3,5.00,000.00,028.7,027.2,000.0,037.5,030.1,32.2,0000.8,0015.52,0007.93,0006.11
2023-06-12 10:14:00,SystemResetWarning,0830.3,5.00,000.00,028.7,027.2,000.0,037.5,030.1,32.2,0001.0,0015.21,0007.88,0006.07
2023-06-12 10:15:00,SystemResetWarning,0830.3,5.00,000.00,028.7,027.2,000.0,037.5,030.1,32.2,0001.3,0015.00,0007.83,0006.05
2023-06-12 10:16:00,SystemResetWarning,0830.3,5.00,000.00,028.7,027.2,000.0,037.5,030.1,32.2,0001.6,0014.72,0007.73,0006.01
2023-06-12 10:17:00,SystemResetWarning,0830.3,4.99,000.00,028.7,027.2,000.0,037.5,030.1,32.1,0001.3,0014.69,0007.60,0005.96
2023-06-12 10:18:00,SystemResetWarning,0830.3,5.00,000.00,028.7,027.1,000.0,037.4,030.0,32.2,0001.1,0014.28,0007.48,0005.91
2023-06-12 10:19:00,SystemResetWarning,0830.3,5.01,000.00,028.7,027.1,000.0,037.4,030.0,32.1,0001.1,0014.04,0007.38,0005.87
2023-06-12 10:20:00,SystemResetWarning,0830.4,5.00,000.00,028.7,027.1,000.0,037.4,030.0,32.1,0001.0,0013.91,0007.31,0005.84
2023-06-12 10:21:00,SystemResetWarning,0830.4,5.01,000.00,028.7,027.1,000.0,037.4,030.0,32.2,0001.1,0013.55,0007.20,0005.81
2023-06-12 10:22:00,SystemResetWarning,0830.4,5.00,000.00,028.7,027.1,000.0,037.4,030.0,32.3,0001.0,0013.37,0007.15,0005.78
2023-06-12 10:23:00,SystemResetWarning,0830.5,4.99,000.00,028.7,027.1,000.0,037.4,030.0,32.3,0001.0,0013.31,0007.06,0005.74
2023-06-12 10:24:00,SystemResetWarning,0830.4,4.99,000.00,028.7,027.1,000.0,037.4,030.0,32.4,0001.0,0013.09,0006.99,0005.69
2023-06-12 10:25:00,SystemResetWarning,0830.5,5.00,000.00,028.6,027.0,000.0,037.4,029.9,32.4,0000.8,0012.94,0006.91,0005.67
2023-06-12 10:26:00,SystemResetWarning,0830.4,4.99,000.00,028.6,027.0,000.0,037.4,029.9,32.6,0000.6,0012.76,0006.82,0005.63
2023-06-12 10:27:00,SystemResetWarning,0830.4,5.00,000.00,028.6,027.0,000.0,037.4,029.9,32.6,0000.5,0012.55,0006.75,0005.60
2023-06-12 10:28:00,SystemResetWarning,0830.3,5.00,000.00,028.6,027.0,000.0,037.4,029.9,32.6,0000.9,0012.37,0006.75,0005.58
2023-06-12 10:29:00,SystemResetWarning,0830.4,5.00,000.00,028.6,027.0,000.0,037.3,029.9,32.5,0001.1,0012.54,0006.86,0005.59
2023-06-12 10:30:00,SystemResetWarning,0830.3,5.01,000.00,028.6,027.0,000.0,037.3,029.9,32.4,0001.4,0012.93,0006.96,0005.59
2023-06-12 10:31:00,SystemResetWarning,0830.4,4.99,000.00,028.6,027.0,000.0,037.3,029.9,32.4,0001.7,0013.43,0007.07,0005.60
2023-06-12 10:32:00,SystemResetWarning,0830.4,4.99,000.00,028.5,027.0,000.0,037.3,029.9,32.4,0001.7,0014.05,0007.08,0005.60
2023-06-12 10:33:00,SystemResetWarning,0830.4,5.00,000.00,028.5,026.9,000.0,037.3,029.9,32.5,0001.9,0014.15,0007.10,0005.63
2023-06-12 10:34:00,SystemResetWarning,0830.4,5.01,000.00,028.5,027.0,000.0,037.3,029.9,32.4,0001.9,0014.30,0007.18,0005.66
2023-06-12 10:35:00,SystemResetWarning,0830.4,5.00,000.00,028.5,027.0,000.0,037.3,029.9,32.5,0002.0,0014.82,0007.25,0005.68
2023-06-12 10:36:00,SystemResetWarning,0830.4,5.01,000.00,028.5,027.0,000.0,037.3,029.9,32.5,0001.8,0015.22,0007.33,0005.67
2023-06-12 10:37:00,SystemResetWarning,0830.4,5.00,000.00,028.5,027.0,000.0,037.3,029.9,32.6,0001.8,0015.63,0007.38,0005.67
2023-06-12 10:38:00,SystemResetWarning,0830.4,5.00,000.00,028.5,027.0,000.0,037.3,029.9,32.6,0001.8,0015.77,0007.41,0005.68
2023-06-12 10:39:00,SystemResetWarning,0830.4,5.00,000.00,028.5,027.0,000.0,037.3,029.9,32.7,0001.8,0016.00,0007.51,0005.71
2023-06-12 10:40:00,SystemResetWarning,0830.4,5.00,000.00,028.5,027.0,000.0,037.3,030.0,32.7,0001.6,0016.18,0007.54,0005.73
2023-06-12 10:41:00,SystemResetWarning,0830.4,5.00,000.00,028.5,027.0,000.0,037.2,029.9,32.7,0001.4,0016.40,0007.63,0005.77
2023-06-12 10:42:00,SystemResetWarning,0830.5,5.00,000.00,028.5,027.0,000.0,037.2,029.9,32.7,0001.0,0016.26,0007.63,0005.81
2023-06-12 10:43:00,SystemResetWarning,0830.4,5.00,000.00,028.5,026.9,000.0,037.2,029.9,32.8,0001.1,0016.11,0007.63,0005.83
2023-06-12 10:44:00,SystemResetWarning,0830.4,5.00,000.00,028.5,026.9,000.0,037.2,029.9,32.7,0001.0,0016.52,0007.68,0005.86
2023-06-12 10:45:00,SystemResetWarning,0830.4,4.98,000.00,028.5,026.9,000.0,037.2,029.9,32.7,0001.3,0017.21,0007.69,0005.86
2023-06-12 10:46:00,SystemResetWarning,0830.4,5.00,000.00,028.5,026.9,000.0,037.2,029.9,32.8,0001.4,0017.58,0007.70,0005.86
2023-06-12 10:47:00,SystemResetWarning,0830.4,5.01,000.00,028.5,026.9,000.0,037.2,029.9,32.8,0001.7,0017.39,0007.70,0005.89
2023-06-12 10:48:00,SystemResetWarning,0830.4,5.01,000.00,028.5,027.0,000.0,037.2,030.0,32.7,0001.9,0017.19,0007.70,0005.90
2023-06-12 10:49:00,SystemResetWarning,0830.4,4.98,000.00,028.6,027.0,000.0,037.2,030.0,32.6,0001.8,0018.09,0007.78,0005.93
2023-06-12 10:50:00,SystemResetWarning,0830.4,5.00,000.00,028.6,027.0,000.0,037.2,030.0,32.7,0001.5,0018.34,0007.87,0005.96
2023-06-12 10:51:00,SystemResetWarning,0830.4,5.01,000.00,028.6,027.0,000.0,037.2,030.0,32.6,0001.3,0018.69,0007.87,0006.00
2023-06-12 10:52:00,SystemResetWarning,0830.4,4.99,000.00,028.6,027.0,000.0,037.2,030.0,32.6,0001.4,0018.67,0007.82,0006.00
2023-06-12 10:53:00,SystemResetWarning,0830.4,5.00,000.00,028.6,027.0,000.0,037.2,030.0,32.6,0001.6,0018.59,0007.80,0006.01
2023-06-12 10:54:00,SystemResetWarning,0830.4,4.99,000.00,028.6,027.0,000.0,037.2,030.0,32.6,0001.4,0018.18,0007.89,0006.05
2023-06-12 10:55:00,SystemResetWarning,0830.3,5.01,000.00,028.6,027.0,000.0,037.2,030.1,32.5,0001.4,0018.03,0007.99,0006.08
2023-06-12 10:56:00,SystemResetWarning,0830.4,5.01,000.00,028.6,027.1,000.0,037.2,030.1,32.5,0001.1,0017.06,0007.98,0006.10
2023-06-12 10:57:00,SystemResetWarning,0830.3,5.01,000.00,028.6,027.1,000.0,037.2,030.1,32.4,0001.1,0016.40,0008.01,0006.16
2023-06-12 10:58:00,SystemResetWarning,0830.3,5.00,000.00,028.6,027.1,000.0,037.2,030.1,32.4,0000.9,0016.34,0008.04,0006.18
2023-06-12 10:59:00,SystemResetWarning,0830.3,4.99,000.00,028.6,027.1,000.0,037.2,030.1,32.4,0000.7,0016.42,0008.08,0006.21
